Regional Weather Roundup
Issued by NWS Jackson, KY

Home | Current Version | Previous Version | Text Only | Print | Product List | Glossary On
Versions: 1 2 3 4 5 6 7 8 9 10 11 12 13 14 15 16 17 18 19 20 21 22 23 24 25 26 27
000
ASUS43 KJKL 081410
RWRJKL

EAST KENTUCKY HOURLY WEATHER ROUNDUP
NATIONAL WEATHER SERVICE JACKSON KY
1000 AM EDT SAT MAY 08 2021

NOTE: "FAIR" INDICATES FEW OR NO CLOUDS BELOW 12,000 FEET WITH
NO SIGNIFICANT WEATHER AND/OR OBSTRUCTIONS TO VISIBILITY.

* THESE REPORTS ARE NOT UNDER NWS QUALITY CONTROL AND MAY NOT
  REPORT WEATHER SUCH AS PRECIPITATION AND FOG.

KYZ079-080-083-085-087-088-110-112-115-119-120-081500
...EASTERN KENTUCKY...

CITY           SKY/WX    TMP DP  RH WIND       PRES   REMARKS
JACKSON        SUNNY     50  32  50 CALM      30.11R
LONDON         PTSUNNY   53  39  59 E3        30.12R
SOMERSET*      MOSUNNY   54  28  37 CALM      30.14S
MONTICELLO*    CLOUDY    54  37  52 NW5G18    30.15R
WILLIAMSBURG*    N/A     54  36  50 E3        30.13R
MIDDLESBORO*   CLOUDY    56  44  64 NE5       30.12S
HARLAN APT*    PTSUNNY   51  37  58 CALM      30.12R
PIKE CO APT*     N/A     48  34  57 W5        30.10S
BIG SANDY APT* MOSUNNY   50  37  62 NE6       30.11S
ASHLAND*       MOSUNNY   48  40  73 W7        30.12R
$$

KYZ035-036-041-042-044-050-067-078-099-081500
...CENTRAL KENTUCKY...

CITY           SKY/WX    TMP DP  RH WIND       PRES   REMARKS
MT STERLING*   SUNNY     50  36  57 N7        30.15R
FLEMING/MASON* SUNNY     46  35  66 NW5       30.15R
DANVILLE*      SUNNY     52  36  54 CALM      30.14S
RICHMOND*        N/A     52  36  54 CALM      30.13R
LEXINGTON      SUNNY     48  35  60 VRB3      30.13R
FRANKFORT      SUNNY     52  36  54 VRB6      30.13R
LOUISVILLE     MOSUNNY   53  33  46 N8        30.14S
LEBANON*         N/A     50  36  57 CALM      30.14S
GLASGOW*       CLOUDY    54  41  62 E8        30.13S
BOWLING GREEN  CLOUDY    54  39  57 E8        30.13R
$$

KYZ091>093-OHZ055-061-077-WVZ005-015-034-035-042-081500
...SOUTHERN OHIO/WEST VIRGINIA...

CITY           SKY/WX    TMP DP  RH WIND       PRES   REMARKS
COVINGTON      MOSUNNY   47  35  63 NW6       30.14R
COLUMBUS       PTSUNNY   43  34  70 NW9       30.09R
DAYTON         MOSUNNY   47  32  56 N13       30.13R
WILMINGTON     SUNNY     45  34  65 N10       30.11R
HUNTINGTON     MOSUNNY   49  38  65 VRB5      30.10R
CHARLESTON     PTSUNNY   48  38  68 NW7       30.08R
PINEVILLE*     PTSUNNY   50  40  66 MISG      30.11R
BECKLEY        MOSUNNY   45  34  65 W13       30.04S
BLUEFIELD      MOSUNNY   45  33  63 NW13G24   30.04R
LOGAN CO APT*    N/A     46  37  71 VRB5      30.09R
$$

VAZ002-007-008-TNZ017-027-036-066-071-081500
...SOUTHWEST VIRGINIA/EAST TENNESSEE...

CITY           SKY/WX    TMP DP  RH WIND       PRES   REMARKS
WISE*          MOSUNNY   46  34  61 W10       30.09S
JONESVILLE*      N/A     57  45  62 VRB6      30.11S
ABINGDON*      CLOUDY    52  42  69 NW13      30.07R
BRISTOL        MOSUNNY   58  43  57 W7        30.08R
MORRISTOWN*    PTSUNNY   57  43  58 W10       30.09R
SEVIERVILLE*   CLOUDY    59  39  47 W9G16     30.11R
KNOXVILLE      CLOUDY    57  42  57 SW9       30.10R
LAFOLLETTE*    PTSUNNY   59  43  55 VRB3      30.13S
OAK RIDGE      CLOUDY    55  43  63 CALM      30.11F
CROSSVILLE     CLOUDY    54  41  61 W9        30.12R
NASHVILLE      CLOUDY    59  44  57 NW3       30.13R
$$

...KEY TO REMARKS...
VSB - VISIBILITY IN MILES
WCI - WIND CHILL INDEX
HX  - HEAT INDEX

$$



USA.gov is the U.S. government's official web portal to all federal, state and local government web resources and services.